Location: Cuguron
(43.0994°N, 0.5363°E)
Time: 10:12:49
(UTC+00:00)

Cosmos 2369 - Pass Details

Date: 15 May 2026
Orbit: 836 x 856 km, 71.0° (Epoch: 5 June)

Event Time Altitude Azimuth Distance (km) Brightness Sun altitude
Rises 20:43:22 0° 331° (NNW) 3,430 8.4 -14.0°
Reaches altitude 10° 20:45:52 10° 328° (NNW) 2,492 7.5 -14.3°
Maximum altitude 20:51:27 57° 251° (WSW) 1,004 4.2 -15.0°
Enters shadow 20:56:06 15° 176° (S) 2,143 5.4 -15.6°
